User: anonymous   Login
Location: Unspecified
(0.0000°N, 0.0000°E)
Time: 21:46:52
(UTC+00:00)
Language:

Orbcomm D8 (FM36) - Orbit

View from above orbital plane
View from above orbital plane
View from above satellite
View from above satellite

Ground track
Ground track

The orbit data is extracted from the following two-line orbital elements,

1 25984U 99065E   18267.89387138 +.00000044 +00000-0 +67368-4 0  9990
2 25984 045.0376 137.8980 0003162 314.7975 045.2614 14.32667653981866
Epoch (UTC): 24 September 2018 21:27:10
Eccentricity: 0.0003162
inclination: 45.0376°
perigee height: 780 km
apogee height: 785 km
right ascension of ascending node: 137.8980°
argument of perigee: 314.7975°
revolutions per day: 14.32667653
mean anomaly at epoch: 45.2614°
orbit number at epoch: 98186

The dashed part of the orbit path shows where the satellite is in the earth's shadow,  

DLR